Overview Statistics Trail Chart Weather Telemetry Raw packets
 

This is the latest recevied weather packets stored in our database for station/object K1BES. If no packets are shown the sender has not sent any weather packets the latest 10 day(s).

<< 85 86 87 88 89 90 91 >>
Time Temp. Humidity Pressure Rain* Wind** Luminosity Snow
1788021523 35° C 60% 1019.7 hPa 0 mm - 985 W/m² -
1788021217 35° C 60% 1020 hPa 0 mm - 983 W/m² -
1788020913 35° C 61% 1020 hPa 0 mm - 961 W/m² -
1788020612 35° C 62% 1019.9 hPa 0 mm - 994 W/m² -
1788020309 35° C 62% 1020.5 hPa 0 mm - 1002 W/m² -
1788020005 35° C 63% 1020.1 hPa 0 mm - 1049 W/m² -
1788019704 34.44° C 64% 1020 hPa 0 mm - 988 W/m² -
1788019404 33.89° C 65% 1020 hPa 0 mm - 963 W/m² -
1788019102 33.89° C 67% 1020 hPa 0 mm - 1019 W/m² -
1788018814 34.44° C 64% 1020 hPa 0 mm - 972 W/m² -
1788018497 35.56° C 61% 1020.1 hPa 0 mm - 188 W/m² -
1788018196 35° C 59% 1020.5 hPa 0 mm - 924 W/m² -
1788017893 34.44° C 58% 1020.5 hPa 0 mm - 903 W/m² -
1788017589 34.44° C 58% 1020.5 hPa 0 mm - 869 W/m² -
1788017285 33.89° C 61% 1020.4 hPa 0 mm - 866 W/m² -
1788016981 33.89° C 61% 1020.5 hPa 0 mm - 882 W/m² -
1788016680 34.44° C 56% 1020.5 hPa 0 mm - 137 W/m² -
1788016378 35° C 59% 1020.6 hPa 0 mm - 808 W/m² -
1788016078 34.44° C 60% 1020.6 hPa 0 mm - 772 W/m² -
1788015777 34.44° C 59% 1020.3 hPa 0 mm - 746 W/m² -
1788015472 33.89° C 59% 1020.3 hPa 0 mm - 726 W/m² -
1788015167 33.89° C 60% 1020.1 hPa 0 mm - 704 W/m² -
1788014865 33.89° C 63% 1020.5 hPa 0 mm - 684 W/m² -
1788014560 33.89° C 62% 1020.4 hPa 0 mm - 667 W/m² -
1788014256 33.89° C 63% 1020.3 hPa 0 mm - 651 W/m² -

* Rain latest hour (hover to see other rain measurements)
** Current wind speed in m/s (hover to see current wind gust speed)